This demonstration page uses our WeatherBlox Daily Observations layout. Learn more.

Left ArrowRight Arrow

34.02893, -84.19858

Hourly Observations for October 26, 2015

Temp ( °F °C ) Dew Point ( °F °C ) Humidity (%) Winds ( mph kmh ) Pressure ( in mb ) Visibility ( mi km ) Precip ( " mm )
12:53 am 00:53 Cloudy 66 18.9 64 17.8 93 93 VRB 6 9 30.07 1018 9 14 0.00 0.00
1:53 am 01:53 Cloudy with Light Rain 65 18.3 64 17.8 97 97 VRB 3 6 30.09 1019 8 13 0.00 0.03
2:53 am 02:53 Mostly Cloudy 65 18.3 64 17.8 97 97 E 3 6 30.10 1019 8 13 0.01 0.25
3:53 am 03:53 Mostly Cloudy with Light Rain 65 18.3 64 17.8 97 97 VRB 5 7 30.09 1019 8 13 0.01 0.25
4:46 am 04:46 Cloudy with Light Rain 65 18.3 64 17.8 97 97 SSW 10 17 30.09 1019 6 10 0.02 0.51
4:53 am 04:53 Cloudy with Light Rain 65 18.3 64 17.8 97 97 S 10 17 30.09 1019 8 13 0.02 0.51
5:29 am 05:29 Cloudy with Light Rain 64 17.8 64 17.8 100 100 Calm 30.09 1019 2 3 0.11 2.79
5:38 am 05:38 Cloudy with Light Rain 64 18 64 18 100 100 Calm 30.09 1019 5 8 0.00 0.00
5:53 am 05:53 Cloudy with Light Rain 65 18.3 65 18.3 100 100 Calm 30.09 1019 5 8 0.12 3.05
6:53 am 06:53 Cloudy with Mist and Fog 65 18.3 65 18.3 100 100 VRB 5 7 30.11 1020 6 10 0.00 0.03
7:29 am 07:29 Cloudy with Mist and Fog 65 18.3 65 18.3 100 100 VRB 5 7 30.09 1019 5 8 0.00 0.00
7:53 am 07:53 Cloudy with Mist and Fog 65 18.3 65 18.3 100 100 VRB 5 7 30.11 1020 3 5 0.00 0.00
8:49 am 08:49 Cloudy with Light Rain 64 18 64 18 100 100 VRB 5 7 30.12 1020 3 5 0.11 2.79
8:53 am 08:53 Cloudy with Rain 65 18.3 65 18.3 100 100 VRB 3 6 30.13 1020 3 4 0.12 3.05
9:53 am 09:53 Cloudy with Light Rain 65 18.3 65 18.3 100 100 VRB 5 7 30.14 1021 3 4 0.05 1.27
10:42 am 10:42 Cloudy with Light Rain 63 17 63 17 100 100 ENE 7 11 30.18 1022 4 6 0.00 0.00
10:53 am 10:53 Cloudy with Light Rain 63 17.2 63 17.2 100 100 E 8 13 30.15 1021 4 6 0.07 1.78
11:01 am 11:01 Cloudy with Rain 62 16.7 62 16.7 100 100 ENE 9 15 30.18 1022 2 2 0.03 0.76
11:48 am 11:48 Cloudy with Mist and Fog 63 17 61 16 94 94 ENE 10 17 30.18 1022 4 6 0.00 0.00
11:53 am 11:53 Cloudy with Light Rain 61 16.1 61 16.1 100 100 E 10 17 30.16 1021 4 6 0.09 2.29
12:53 pm 12:53 Cloudy with Mist and Fog 60 15.6 60 15.6 100 100 E 8 13 30.17 1022 3 5 0.01 0.25
1:53 pm 13:53 Cloudy with Mist and Fog 60 15.6 59 15 96 96 E 8 13 30.16 1021 3 5 0.00 0.00
2:53 pm 14:53 Cloudy with Light Rain 59 15 59 15 100 100 ENE 10 17 30.15 1021 3 5 0.06 1.52
3:53 pm 15:53 Cloudy with Light Rain 59 15 58 14.4 96 96 ENE 10 17 30.13 1020 7 11 0.02 0.51
4:53 pm 16:53 Cloudy with Light Rain 57 13.9 56 13.3 96 96 ENE 10 17 30.16 1021 5 8 0.02 0.51
5:07 pm 17:07 Cloudy with Light Rain 57 13.9 56 13.3 96 96 VRB 7 11 30.18 1022 3 4 0.03 0.76
5:15 pm 17:15 Cloudy with Light Rain 56 13.3 55 12.8 97 97 ENE 9 15 30.18 1022 5 8 0.03 0.76
5:34 pm 17:34 Cloudy with Light Rain 55 13 55 13 100 100 E 10 17 30.18 1022 5 8 0.00 0.00
5:39 pm 17:39 Cloudy with Light Rain 56 13.3 55 12.8 97 97 E 8 13 30.18 1022 5 8 0.05 1.27
5:53 pm 17:53 Cloudy with Light Rain 55 12.8 55 12.8 100 100 ENE 9 15 30.16 1021 6 10 0.06 1.52
5:57 pm 17:57 Cloudy with Light Rain 55 12.8 54 12.2 96 96 ENE 12 19 30.18 1022 6 10 0.00 0.03
6:53 pm 18:53 Cloudy 54 12.2 53 11.7 97 97 VRB 6 9 30.17 1022 10 16 0.00 0.03
7:50 pm 19:50 Cloudy 54 12 52 11 94 94 VRB 7 11 30.18 1022 10 16 0.00 0.00
7:53 pm 19:53 Cloudy 53 11.7 52 11.1 96 96 VRB 6 9 30.17 1022 10 16 0.00 0.00
8:53 pm 20:53 Cloudy with Light Rain 53 11.7 52 11.1 96 96 ENE 8 13 30.17 1022 9 14 0.03 0.76
9:53 pm 21:53 Cloudy with Light Rain 52 11.1 51 10.6 97 97 E 10 17 30.17 1022 10 16 0.04 1.02
10:53 pm 22:53 Cloudy 52 11.1 51 10.6 97 97 E 9 15 30.19 1022 10 16 0.00 0.03
11:53 pm 23:53 Cloudy 51 10.6 50 10 96 96 ENE 12 19 30.19 1023 10 16 0.00 0.03

Powered by AerisWeather